Location: Chittendens Corners
(41.2320°N, 81.4940°W)
Time: 17:32:34
(UTC+00:00)

Aureole 3 Rocket - Pass Details

Date: 29 October 2020
Orbit: 399 x 1739 km, 82.5° (Epoch: 28 November)

Event Time Altitude Azimuth Distance (km) Brightness Sun altitude
Rises 23:23:56 0° 190° (S) 2,589 6.5 -11.7°
Reaches altitude 10° 23:25:46 10° 191° (S) 1,819 5.7 -12.1°
Maximum altitude 23:29:43 80° 279° (W) 686 3.3 -12.8°
Drops below altitude 10° 23:35:15 10° 6° (N) 2,530 6.1 -13.8°
Sets 23:38:11 0° 8° (N) 3,707 6.9 -14.4°
